Location: Babice
(50.3480°N, 22.9363°E)
Time: 12:28:56
(UTC+00:00)

Cosmos 2360 - Pass Details

Date: 14 July 2020
Orbit: 844 x 858 km, 70.8° (Epoch: 07 August)

Event Time Altitude Azimuth Distance (km) Brightness Sun altitude
Rises 00:51:14 0° 328° (NNW) 3,443 7.7 -11.9°
Reaches altitude 10° 00:53:43 10° 326° (NW) 2,503 7.0 -11.7°
Maximum altitude 00:59:25 67° 245° (WSW) 931 4.2 -11.2°
Drops below altitude 10° 01:05:05 10° 164° (SSE) 2,486 6.3 -10.7°
Sets 01:07:32 0° 162° (SSE) 3,418 7.0 -10.5°
